sat.trackr.live / text

‹ back to catalog

STARLINK-35075

NORAD 65702 · 2025-212AC

PAYLOAD ACTIVE UNKNOWN

§ Identity

Operator
Country
US
Launch date
2025-09-21
Launch site
AFETR
Launch vehicle
Mass (kg)
RCS (m²)

Purposes: comms

External: N2YO · Heavens-Above · Gunter

§ Orbital elements

Epoch: 2026-09-20T02:43:19.682400Z

Period
94.01 min
Inclination
53.1592°
Eccentricity
0.0001561
Mean motion
15.31713845 rev/d
Perigee alt
469.6 km
Apogee alt
471.8 km
Semi-major
6,848.8 km
B*
4.5118e-4
RAAN
161.6741°
Arg perigee
88.3215°
Mean anomaly
271.7965°
Rev number
5,702

§ Raw data

STARLINK-350751 65702U 25212AC  26263.11342225  .00013667  00000+0  45118-3 0  99952 65702  53.1592 161.6741 0001561  88.3215 271.7965 15.31713845 57022

JSON: /api/v1/satellites/65702 · /tle

For live sub-satellite position, see the globe view (requires WebGL).

§ Visibility from observer

Set your observer location to see the next 7 days of passes ≥ 10°. The values pass through the URL so the page stays shareable.

No JS? Fill the form by hand. The geolocation button needs JavaScript.